Simultaneous Nadir Overpasses (SNOs) Predictions

Prediction of SNOs between NOAA-21 and AQUA Satellite Orbit:

Table of predicted SNOs for the next 14.0 days since TLE Epoch: 2/22/2025
Index Date (NOAA-21) Time (NOAA-21) Lat,Lon (NOAA-21) SZA (NOAA-21 ) Date (AQUA) Time (AQUA) Lat,Lon (AQUA) SZA (AQUA ) Distance(km) Time Diff (sec)
1 02/23/2025 15:18:07 -81.33, 61.51 83.17 02/23/2025 15:18:20 -81.32, 61.64 83.20 2.30 13
2 02/23/2025 16:08:51 81.33,-130.67 96.75 02/23/2025 16:07:38 81.33,-130.52 96.77 2.48 73
3 02/26/2025 01:39:48 81.33, 86.43 95.88 02/26/2025 01:39:44 81.33, 86.55 95.87 2.02 4
4 02/28/2025 11:10:45 81.33, -56.56 95.01 02/28/2025 11:11:49 81.32, -56.58 94.97 0.81 64
5 02/28/2025 12:01:28 -81.33, 111.49 85.11 02/28/2025 12:01:08 -81.33, 111.33 85.08 2.75 20
6 03/02/2025 21:32:25 -81.33, -31.52 86.00 03/02/2025 21:33:11 -81.33, -31.58 86.01 1.31 46
7 03/02/2025 22:23:10 81.33, 135.77 94.00 03/02/2025 22:22:30 81.32, 135.76 94.02 0.97 40
8 03/05/2025 07:54:05 81.33, -6.97 93.07 03/05/2025 07:54:30 81.33, -7.00 93.06 0.50 25
9 03/05/2025 08:44:50 -81.33, 160.38 86.96 03/05/2025 08:43:50 -81.32, 160.56 86.95 2.98 60



Historial Predications of SNOs between NOAA-21 and AQUA
